Drumheller East, Alberta

4:13 AM MDT on July 21, 2017 (GMT -0600)
Drumheller East

Weather History for CWDZ - September, 2013

Change the Weather History Date:

Monday, September 16, 2013

  Actual Average Record
Temperature  
Mean Temperature 72 °F -  
Max Temperature 88 °F - - ()
Min Temperature 55 °F - - ()
Cooling Degree Days 6    
Growing Degree Days 22 (Base 50)    
Moisture  
Dew Point 45 °F    
Average Humidity 47    
Maximum Humidity 82    
Minimum Humidity 13    
Precipitation  
Precipitation 0.00 in - - ()
Sea Level Pressure  
Sea Level Pressure 29.58 in    
Wind  
Wind Speed 9 mph ()    
Max Wind Speed 20 mph    
Max Gust Speed -    
T = Trace of Precipitation, MM = Missing Value Source: Averaged Metar Reports

Daily Weather History Graph

Daily Weather History Graph

Search for Another Location

Airport or City:

Trip Planner

Search our weather history database for the weather conditions in past years. The results will help you decide how hot, cold, wet, or windy it might be!

Date:

Astronomy

Sep. 16, 2013 Rise Set
Actual Time 7:07 AM MDT 7:41 PM MDT
Civil Twilight 6:34 AM MDT 8:15 PM MDT
Nautical Twilight 5:54 AM MDT 8:55 PM MDT
Astronomical Twilight 5:11 AM MDT 9:37 PM MDT
Moon 6:05 PM MDT (9/16) 3:41 AM MDT (9/16)
Length of Visible Light 13h 41m
Length of Day
12h 34m
Waxing Gibbous, 90% of the Moon is Illuminated
Sep 16
Waxing Gibbous
Sep 19
Full
Sep 26
Last Quarter
Oct 4
New
Oct 11
First Quarter

Hourly Weather History & Observations

Time (MDT) Temp. Dew Point Humidity Pressure Visibility Wind Dir Wind Speed Gust Speed Precip Events Conditions
12:00 AM 61 °F 44 °F 43% 29.75 in - South 12.7 mph - -  
12:00 AM 61.3 °F 44.2 °F 53% 29.75 in - South 12.7 mph - N/A   Unknown
1:00 AM 59.4 °F 47.8 °F 66% 29.73 in - SSE 8.1 mph - N/A   Unknown
2:00 AM 57.6 °F 48.6 °F 72% 29.71 in - SSE 4.6 mph - N/A   Unknown
3:00 AM 57.0 °F 49.6 °F 76% 29.68 in - SSE 3.5 mph - N/A   Unknown
4:00 AM 58.3 °F 51.4 °F 78% 29.65 in - SSE 10.4 mph - N/A   Unknown
5:00 AM 57.4 °F 51.1 °F 79% 29.65 in - SSE 9.2 mph - N/A   Unknown
6:00 AM 56 °F 51 °F 78% 29.64 in - SSE 6.9 mph - -  
6:00 AM 56.5 °F 51.1 °F 82% 29.64 in - SSE 6.9 mph - N/A   Unknown
7:00 AM 56.8 °F 50.9 °F 80% 29.63 in - South 9.2 mph - N/A   Unknown
8:00 AM 57.9 °F 51.8 °F 80% 29.62 in - SSE 6.9 mph - N/A   Unknown
9:00 AM 62.2 °F 52.3 °F 70% 29.59 in - SSE 9.2 mph - N/A   Unknown
10:00 AM 63.9 °F 52.7 °F 67% 29.60 in - SE 10.4 mph - N/A   Unknown
11:00 AM 74.8 °F 52.3 °F 45% 29.56 in - SSE 4.6 mph - N/A   Unknown
12:00 PM 83 °F 47 °F 18% 29.52 in - SSW 9.2 mph - -  
12:00 PM 83.3 °F 46.9 °F 28% 29.52 in - SSW 9.2 mph - N/A   Unknown
1:00 PM 85.8 °F 42.8 °F 22% 29.50 in - SW 15.0 mph - N/A   Unknown
2:00 PM 87.6 °F 37.8 °F 17% 29.48 in - SW 15.0 mph - N/A   Unknown
3:00 PM 87.6 °F 33.4 °F 14% 29.48 in - WSW 16.1 mph - N/A   Unknown
4:00 PM 86.2 °F 34.7 °F 16% 29.48 in - SW 19.6 mph - N/A   Unknown
5:00 PM 82.4 °F 38.5 °F 21% 29.49 in - WNW 17.3 mph - N/A   Unknown
6:00 PM 80 °F 38 °F 13% 29.50 in - West 16.1 mph - -  
6:00 PM 79.9 °F 37.8 °F 22% 29.50 in - West 16.1 mph - N/A   Unknown
7:00 PM 77.0 °F 37.4 °F 24% 29.50 in - West 10.4 mph - N/A   Unknown
8:00 PM 70.3 °F 39.7 °F 33% 29.52 in - West 4.6 mph - N/A   Unknown
9:00 PM 67.5 °F 39.7 °F 36% 29.52 in - SW 6.9 mph - N/A   Unknown
10:00 PM 64.0 °F 41.5 °F 44% 29.54 in - WSW 9.2 mph - N/A   Unknown
11:00 PM 61.9 °F 41.7 °F 48% 29.54 in - WSW 10.4 mph - N/A   Unknown